FW9685 Weather Reports


Display with metric or nautical units.
time (UTC)temp
F
wind
direction
speed
MPH
gust
MPH
rain 1hr
in
rain 24hr
in
rain mn
in
humidity
%
barometer
mb
20260902163100 90 176 8.0 16.0 0.00 0.00 0.00 37 1019.4
20260902161603 89 208 11.0 19.0 0.00 0.00 0.00 38 1019.3
20260902160105 88 178 8.0 16.0 0.00 0.00 0.00 39 1019.4
20260902154604 88 180 11.0 18.0 0.00 0.00 0.00 39 1019.2
20260902153106 87 188 9.0 20.0 0.00 0.00 0.00 40 1019.2
20260902151603 86 186 10.0 21.0 0.00 0.00 0.00 41 1018.9
20260902144614 84 164 12.0 18.0 0.00 0.00 0.00 45 1019.3
20260902143105 83 173 11.0 18.0 0.00 0.00 0.00 46 1018.9
20260902141603 81 182 10.0 19.0 0.00 0.00 0.00 48 1018.9
20260902134604 79 163 12.0 17.0 0.00 0.00 0.00 50 1018.8
20260902133102 78 173 9.0 14.0 0.00 0.00 0.00 50 1018.7
20260902131607 78 167 7.0 12.0 0.00 0.00 0.00 51 1018.6
20260902130107 77 169 7.0 11.0 0.00 0.00 0.00 52 1018.3
20260902124604 76 168 6.0 10.0 0.00 0.00 0.00 52 1018.0
20260902123101 76 171 4.0 10.0 0.00 0.00 0.00 52 1017.9
20260902121604 77 167 8.0 12.0 0.00 0.00 0.00 52 1017.9
20260902120108 76 163 6.0 8.0 0.00 0.00 0.00 54 1017.7
20260902114601 76 153 6.0 9.0 0.00 0.00 0.00 54 1018.0
20260902113100 76 167 5.0 8.0 0.00 0.00 0.00 53 1018.0
20260902111604 76 171 5.0 9.0 0.00 0.00 0.00 53 1018.0
20260902110108 77 156 6.0 8.0 0.00 0.00 0.00 52 1018.1
20260902104600 77 164 5.0 9.0 0.00 0.00 0.00 51 1017.9
20260902103105 78 163 5.0 9.0 0.00 0.00 0.00 51 1017.9
20260902101603 78 169 6.0 10.0 0.00 0.00 0.00 50 1018.0
20260902100113 79 169 6.0 10.0 0.00 0.00 0.00 49 1017.9
20260902094617 79 170 5.0 9.0 0.00 0.00 0.00 49 1018.0
20260902093102 79 170 6.0 10.0 0.00 0.00 0.00 48 1018.0
20260902091602 79 170 5.0 9.0 0.00 0.00 0.00 48 1018.0
20260902090056 79 173 4.0 7.0 0.00 0.00 0.00 48 1018.0
20260902084606 78 173 3.0 6.0 0.00 0.00 0.00 48 1018.0
20260902083104 79 174 2.0 5.0 0.00 0.00 0.00 47 1018.2
20260902081558 79 170 5.0 9.0 0.00 0.00 0.00 46 1018.1
20260902080112 79 169 4.0 8.0 0.00 0.00 0.00 45 1018.0
20260902074603 80 166 6.0 8.0 0.00 0.00 0.00 44 1018.0
20260902073100 79 169 5.0 6.0 0.00 0.00 0.00 43 1018.0
20260902071604 80 165 5.0 7.0 0.00 0.00 0.00 42 1017.9
20260902070106 80 155 5.0 8.0 0.00 0.00 0.00 42 1017.9
20260902064612 80 142 7.0 8.0 0.00 0.00 0.00 41 1017.9
20260902063106 81 130 6.0 8.0 0.00 0.00 0.00 40 1018.1
20260902060125 82 144 6.0 9.0 0.00 0.00 0.00 38 1018.0
20260902054602 83 144 7.0 11.0 0.00 0.00 0.00 37 1018.0
20260902053124 83 146 8.0 12.0 0.00 0.00 0.00 37 1017.8
20260902051606 84 136 8.0 12.0 0.00 0.00 0.00 36 1017.8
20260902050112 84 128 8.0 12.0 0.00 0.00 0.00 36 1017.7
20260902044603 85 123 9.0 12.0 0.00 0.00 0.00 35 1017.8
20260902043102 86 137 10.0 14.0 0.00 0.00 0.00 34 1017.9
20260902041603 87 127 9.0 14.0 0.00 0.00 0.00 34 1017.9
20260902040106 87 129 12.0 17.0 0.00 0.00 0.00 34 1017.9
20260902034607 87 134 9.0 12.0 0.00 0.00 0.00 34 1017.6
20260902033110 87 133 10.0 15.0 0.00 0.00 0.00 33 1017.3
20260902031604 88 141 9.0 12.0 0.00 0.00 0.00 33 1017.3
20260902024609 88 124 8.0 11.0 0.00 0.00 0.00 33 1016.9
20260902023058 88 132 8.0 11.0 0.00 0.00 0.00 32 1016.5
20260902021615 89 131 9.0 14.0 0.00 0.00 0.00 31 1016.4
20260902014600 90 128 8.0 13.0 0.00 0.00 0.00 31 1016.0
20260902013105 91 111 12.0 16.0 0.00 0.00 0.00 31 1015.8
20260902011603 91 127 11.0 16.0 0.00 0.00 0.00 30 1015.9
20260902010108 92 120 15.0 20.0 0.00 0.00 0.00 30 1015.8
20260902004608 92 101 14.0 18.0 0.00 0.00 0.00 29 1015.7
20260902003105 93 129 16.0 21.0 0.00 0.00 0.00 29 1015.8
20260902001604 93 119 10.0 14.0 0.00 0.00 0.00 28 1015.8
20260902000105 94 144 12.0 16.0 0.00 0.00 0.00 28 1015.8
20260901234604 94 102 10.0 16.0 0.00 0.00 0.00 28 1015.9
20260901233110 94 136 13.0 21.0 0.00 0.00 0.00 27 1015.7
20260901231605 95 134 13.0 24.0 0.00 0.00 0.00 27 1015.3
20260901230108 94 128 15.0 22.0 0.00 0.00 0.00 28 1015.5
20260901224605 95 201 5.0 16.0 0.00 0.00 0.00 27 1015.5
20260901223104 95 136 7.0 16.0 0.00 0.00 0.00 27 1015.6
20260901221601 95 145 7.0 14.0 0.00 0.00 0.00 27 1016.0
20260901220110 94 151 6.0 16.0 0.00 0.00 0.00 29 1015.9
20260901214611 94 176 6.0 16.0 0.00 0.00 0.00 28 1016.1
20260901213103 93 167 10.0 16.0 0.00 0.00 0.00 29 1016.2
20260901211600 93 153 5.0 16.0 0.00 0.00 0.00 29 1016.5
20260901210108 94 173 10.0 15.0 0.00 0.00 0.00 29 1016.8
20260901204605 94 169 7.0 15.0 0.00 0.00 0.00 29 1017.2
20260901203105 94 116 9.0 18.0 0.00 0.00 0.00 29 1017.4
20260901201603 94 115 10.0 22.0 0.00 0.00 0.00 30 1017.5
20260901200109 92 123 8.0 15.0 0.00 0.00 0.00 32 1017.8
20260901194612 93 133 15.0 21.0 0.00 0.00 0.00 31 1017.9
20260901193111 94 138 14.0 22.0 0.00 0.00 0.00 31 1018.0
20260901191608 93 127 8.0 23.0 0.00 0.00 0.00 34 1018.0
20260901190120 93 143 10.0 19.0 0.00 0.00 0.00 33 1018.1
20260901184602 92 138 11.0 23.0 0.00 0.00 0.00 34 1018.3
20260901183106 91 142 8.0 18.0 0.00 0.00 0.00 35 1018.8
20260901181605 91 146 8.0 16.0 0.00 0.00 0.00 38 1018.7
20260901174606 89 154 10.0 19.0 0.00 0.00 0.00 41 1019.0
20260901173107 89 169 9.0 18.0 0.00 0.00 0.00 42 1019.1
20260901171610 88 149 10.0 19.0 0.00 0.00 0.00 43 1019.2
20260901170107 87 146 9.0 20.0 0.00 0.00 0.00 46 1019.3
20260901164601 87 178 9.0 16.0 0.00 0.00 0.00 45 1019.7